Погода в Джалалабаде

Погода в Джалалабаде : погода сейчас, прогноз погоды и архив. Всё, что Вы хотите узнать о погоде в Джалалабаде!

Поиск расширенной информации на нашем сайте:

Другие новости

Новости СМИ2

Главная страница сайта

Новости сайта

03.07.2017

Напоминаем, что на нашем специализированном сайте Метеоцентр.Азия вы можете получить высокодетализированные автоматические прогнозы погоды по пунктам России, СНГ и мира в авиационном формате (включающие направление и скорость ветра, видимость, явления погоды, количество и форму облачности, нижнюю и верхнюю границу облачности).


Погода в Джалалабаде - сегодня

Время (UTC), дата Ветер
(°,м/с) 
Видим.   Явления Облачность Т
(°С)
Тd
(°С)
f(%) Тe
(°С)
Pmin
(гПа)
dP
(гПа)
Po
(мм)
O2
(г/м3)
Тmin Tmax R s Состояние
почвы
09 16.06.18 190 (Ю) 20000 м    1/1 1000 м 
[Cu med, cong]
+27.4 +12.3 39 +34  1005.9  -1.6  692  250           
12 16.06.18 180 (Ю) 20000 м    1/1 1000 м 
[Cu med, cong]
+27.2 +10.3 35 +30  1005.2  -0.7  692  252           
15 16.06.18 170 (Ю) 20000 м    ясно 
+22.7 +10.7 47 +27  1006.6  -0.1  691  254           
18 16.06.18 040 (СВ) н/о    ясно 
+19.2 +13 67 +28  1007.4  -0.2  691  257    +28.2       
21 16.06.18 030 (СВ) н/о    ясно 
+16.8 +11.9 73 +24  1006.1  1.8  690  259           
00 17.06.18 020 (С) 1-2  20000 м    ясно 
+15.2 +10.9 75 +21  1005.6  -1  690  261           
03 17.06.18 тихо ()   20000 м    ясно 
+23.5 +11.7 47 +29  1002.9  -0.1  689  253           
06 17.06.18 030 (СВ) 20000 м    ясно 
+27.1 +10.9 36 +31  1001  -0.7  688  249  +15.2         
09 17.06.18 180 (Ю) 20000 м    ясно 
[Cu med, cong]
+28.8 +11.8 35 +34  999.6  -0.9  688  248           
12 17.06.18 180 (Ю) 20000 м    ясно 
+29.6 +10 30 +32  999.2  -0.2  688  248           
15 17.06.18 тихо ()   н/о    ясно 
+24.6 +14.1 52 +34  1001.2  0.6  688  251    +30       
18 17.06.18 010 (С) н/о    ясно 
+19.2 +12.4 65 +27  1004.1  1.2  689  256    +30       
21 17.06.18 040 (СВ) н/о    ясно 
+17.7 +10.4 62 +23  1004.2  -0.4  688  258           
00 18.06.18 030 (СВ) 3-4  20000 м    ясно 
+16.4 +9.7 65 +19  1004.7  689  260           
03 18.06.18 010 (С) 20000 м    ясно 
+24.4 +13 49 +30  1002.7  0.6  751  275           
06 18.06.18 180 (Ю) 20000 м    ясно 
+30.3 +10.4 29 +34  1000.4  -0.7  688  247  +16.4         
09 18.06.18 170 (Ю) 20000 м    1/0 
[Cu hum]
+32.5 +9.3 24 +35  998.1  -1.6  687  245           
12 18.06.18 140 (ЮВ) 20000 м    1/1 1000 м 
[Cu hum]
+32.1 +11 27 +36  998.3  -0.1  688  246           
15 18.06.18 270 (З) 1-2  20000 м    ясно 
+25.3 +10.9 40 +30  1001.6  1.3  688  251    +33       
18 18.06.18 040 (СВ) 1-4  н/о    ясно 
+22 +12.9 56 +29  1003.4  0.8  689  254    +33       
21 18.06.18 020 (С) н/о    5/0 верхняя 
[Ci sp]
+19.7 +12 61 +27  1003.9  -0.2  689  256           
00 19.06.18 030 (СВ) 20000 м    9/0 верхняя 
[Ci sp]
+18.6 +11.4 63 +25  1003.9  -0.3  689  258           
03 19.06.18 010 (С) 20000 м    4/0 верхняя 
[Ci sp]
+25 +12.7 46 +32  1002.4  0.5  689  251           
06 19.06.18 180 (Ю) 1-3  20000 м    1/1 1000 м 
[Cu hum]
+31.1 +11.4 30 +36  1000.1  -0.7  687  246  +18.6         
09 19.06.18 250 (З) 20000 м    1/1 1000 м 
[Cu hum]
+33.4 +10.3 24 +37  997.9  -1.4  687  244           
Время (UTC), дата Ветер
(°,м/с) 
Видим.   Явления Облачность Т
(°С)
Тd
(°С)
f(%) Тe
(°С)
Pmin
(гПа)
dP
(гПа)
Po
(мм)
O2
(г/м3)
Тmin Tmax R s Состояние
почвы

Для получения пояснительной информации подведите курсор к названию столбца.

ПОГОДА в Джалалабаде - архив

Всё, что Вы хотите узнать о погоде в Джалалабаде - удобно и подробно!

Выберите нужную дату (начиная с 1 января 2015* года) и нажмите кнопку "Найти".
Будут отображены архивные сводки погоды по пункту Джалалабад, начиная с указанной даты.


Отображать данные в формате CSV (для использования в таблицах Excel)


Внимание! Наш архив погоды предназначен исключительно для личного некоммерческого использования в познавательных целях. Если Вам необходимы официальные справки о состоянии погоды (для производственных, юридических, коммерческих и т.п. целей), обращайтесь в органы Росгидромета.

*Примечание: данная дата относится к архиву по метеостанциям СССР (Россия, СНГ, Балтия).
Архив по метеостанциям Зарубежной Европы и Азии (кроме Китая) хранится 10 дней, по другим регионам земного шара (Китай, Африка, Америка, Австралия, Океания) - 1 день.

Джалалабад - район местоположения метеостанции


Название, широта, долгота, высота метеостанции:
Джалалабад 40.9°ш. 72.9°д. 765 м над ур. моря [Кыргызстан]

Дополнительная информация

В oтличие oт бoльшинства пoгoдных сайтoв мы публикуем пoдрoбную метеoинфoрмацию в детальнoм прoфессиoнальнoм фoрмате.

Характеристики температуры и влажнoсти вoздуха измеряются на высoте 2 м в тени вдали oт зданий и деревьев.
Скoрoсть ветра измеряется на высoте 10 м (на урoвне рoста челoвека скoрoсть ветра ниже в 1.5-2 раза). Если метеoстанция нахoдится в гoрoде или в лесу, тo скoрoсть ветра занижена на 2-4 м/с пo сравнению с oткрытым местoм. Скoрoсть ветра над акватoриями крупных рек и oзёр, а также на вершинах хoлмoв на 2-5 м/с выше, чем в oбычных услoвиях.
Атмoсфернoе давление в разных тoчках местнoсти мoжет значительнo oтличаться oт давления на метеoстанции, в зависимoсти oт услoвий рельефа (при пoдъёме на 10 м давление пoнижается примернo на 1 мм рт.ст.).